Regional Weather Roundup
Issued by NWS Jackson, KY

Home | Current Version | Previous Version | Graphics & Text | Print | Product List | Glossary On
Versions: 1 2 3 4 5 6 7 8 9 10 11 12 13 14 15 16 17 18 19 20 21 22 23 24 25 26 27
000
ASUS43 KJKL 222110
RWRJKL

EAST KENTUCKY HOURLY WEATHER ROUNDUP
NATIONAL WEATHER SERVICE JACKSON KY
500 PM EDT TUE AUG 22 2017

NOTE: "FAIR" INDICATES FEW OR NO CLOUDS BELOW 12,000 FEET WITH
NO SIGNIFICANT WEATHER AND/OR OBSTRUCTIONS TO VISIBILITY.

* THESE REPORTS ARE NOT UNDER NWS QUALITY CONTROL AND MAY NOT
  REPORT WEATHER SUCH AS PRECIPITATION AND FOG.

KYZ079-080-083-085-087-088-110-112-115-119-120-222200
...EASTERN KENTUCKY...

CITY           SKY/WX    TMP DP  RH WIND       PRES   REMARKS
JACKSON        FOG       72  70  93 CALM      29.98F VSB 1
LONDON         LGT RAIN  74  71  91 W3        29.99F
SOMERSET*      CLOUDY    77  75  94 CALM      29.98F
MONTICELLO*    CLOUDY    84  73  69 W14G21    29.99F HX  90
WILLIAMSBURG*  PTCLDY    82  75  78 W3        29.98F
MIDDLESBORO*   SUNNY     89  69  52 SW7G17    29.99F HX  93
HARLAN APT*    PTCLDY    84  66  54 CALM      30.00F
PIKE CO APT*   PTSUNNY   84  69  60 SW5       29.98F
BIG SANDY APT* LGT RAIN  73  72  99 CALM      29.99R
MOREHEAD APT*  CLOUDY    75  72  88 S12       29.93F
$$

KYZ035-036-041-042-044-050-067-078-099-222200
...CENTRAL KENTUCKY...

CITY           SKY/WX    TMP DP  RH WIND       PRES   REMARKS
MT STERLING*   PTSUNNY   75  70  83 SW8G16    29.93F
FLEMING/MASON* FOG       75  74  97 MISG      29.93S VSB 1/2
DANVILLE*      CLOUDY    79  72  78 SW8       29.96F
LEXINGTON      CLOUDY    86  73  65 S12       29.92F HX  93
FRANKFORT      CLOUDY    86  70  58 W10       29.90F HX  90
LOUISVILLE     TSTM      74  72  93 NW14      29.94R FOG
LEBANON*         N/A     84  73  70 S12       29.94R HX  91
GLASGOW*       PTSUNNY   87  69  54 SW7       29.95R HX  92
BOWLING GREEN  CLOUDY    89  71  55 W13       29.94R HX  95
$$

KYZ091>093-OHZ055-061-077-WVZ005-015-034-035-042-222200
...SOUTHERN OHIO/WEST VIRGINIA...

CITY           SKY/WX    TMP DP  RH WIND       PRES   REMARKS
COVINGTON      CLOUDY    78  69  73 W12       29.92S
COLUMBUS       PTSUNNY   81  69  67 W9        29.87S
DAYTON         CLOUDY    79  67  66 W18G24    29.90S
WILMINGTON     CLOUDY    80  70  71 W14       29.89F
HUNTINGTON     CLOUDY    79  68  69 SW8       29.91F
CHARLESTON     CLOUDY    79  69  71 S8        29.93F THUNDER
PINEVILLE*     MOSUNNY   88  66  48 MISG      30.04F HX  90
BECKLEY        MOSUNNY   84  64  50 SW14      30.04S
BLUEFIELD      SUNNY     82  60  47 SW14      30.08F
LOGAN CO APT*    N/A     84  66  54 SW8       29.98F
$$

VAZ002-007-008-TNZ017-027-036-066-071-222200
...SOUTHWEST VIRGINIA/EAST TENNESSEE...

CITY           SKY/WX    TMP DP  RH WIND       PRES   REMARKS
WISE*          MOSUNNY   82  61  47 SW13      30.08F
JONESVILLE*      N/A     90  66  45 SW12      30.01F HX  92
ABINGDON*      MOSUNNY   87  65  48 W14       30.05F
BRISTOL        MOSUNNY   89  65  44 SW13      30.01F HX  91
MORRISTOWN*    CLEAR     90  64  43 W9G16     30.00F HX  91
SEVIERVILLE*   PTCLDY    93  61  33 W12       29.98F HX  93
LAFOLLETTE*    PTCLDY    88  70  55 SW9       30.02F HX  92
OAK RIDGE      MOSUNNY   91  66  43 VRB7      29.99F HX  93
CROSSVILLE     SUNNY     87  65  47 VRB7G17   30.04F
NASHVILLE      CLOUDY    91  71  51 SW9G17    29.94F HX  97
$$

...KEY TO REMARKS...
VSB - VISIBILITY IN MILES
WCI - WIND CHILL INDEX
HX  - HEAT INDEX

$$




USA.gov is the U.S. government's official web portal to all federal, state and local government web resources and services.